SCP
0 0 0 -0 -0 0 0 0 0 0 0 0 0 0 0 0 0 0 0 1 1 1 1 1 1 0 0 0 0 0 0 0 0 1 1 1 1 1 1 1 1 1 1 1
0 0 0 0 0 0 0 0 0 0 0 0 0 0 0 0 0 0 0 0 0 1 1 1 1 0 0 0 0 0 0 0 0 1 1 1 1 1 1 1 1 1 1 1
0 0 0 0 0 0 0 0 0 0 0 0 0 0 0 0 0 0 0 0 0 0 1 1 1 0 0 0 0 0 0 1 1 1 1 1 1 1 1 1 1 1 1 1
0 0 0 0 0 0 0 0 0 0 0 0 0 0 0 0 0 1 0 0 0 0 0 0 0 0 0 0 0 0 1 1 1 1 1 1 1 1 1 1 1 1 1 1
0 0 0 0 0 0 0 0 0 0 0 0 0 0 0 1 1 1 1 1 1 1 0 0 0 0 0 0 0 0 1 1 1 1 1 1 1 1 1 1 1 1 1 1
0 0 0 0 0 0 0 0 0 0 0 0 0 0 0 1 1 1 1 1 1 1 1 1 1 1 1 1 1 1 1 1 1 1 1 1 1 1 1 1 1 1 1 1
0 0 0 0 0 0 0 0 0 0 0 0 0 0 1 1 1 1 1 1 1 1 1 1 1 1 1 1 1 1 1 1 1 1 1 1 1 1 1 1 1 1 1 1
0 0 0 0 0 0 0 0 0 0 0 0 0 1 1 1 1 1 1 1 1 1 1 1 1 1 1 1 1 1 1 1 1 1 1 1 1 1 1 1 1 1 1 1
0 0 0 0 0 0 0 0 0 0 0 0 0 0 1 1 1 1 1 1 1 1 1 1 1 1 1 1 1 1 1 1 1 1 1 1 1 1 1 1 1 1 1 1
0 0 0 0 0 0 0 0 0 0 0 0 0 0 0 1 1 1 1 1 1 1 1 1 1 1 1 1 1 1 1 1 1 1 1 1 1 1 1 1 1 1 1 1
0 0 0 0 0 0 0 0 0 0 0 0 0 0 0 0 1 1 1 1 1 1 1 1 1 1 1 1 1 1 1 1 1 1 1 1 1 1 1 1 1 1 1 1
0 0 0 0 0 0 0 0 0 0 0 0 0 0 0 0 0 1 1 1 1 1 1 1 1 1 1 1 1 1 1 2 2 2 1 1 1 1 1 1 0 0 0 0
0 0 0 0 0 0 0 0 0 0 0 0 0 0 0 0 0 0 0 0 1 1 1 1 1 1 1 1 1 1 1 2 2 2 2 1 1 1 1 1 0 0 0 0
0 0 0 0 0 0 0 0 0 0 0 0 0 0 0 0 0 0 0 0 0 0 1 1 1 1 1 1 1 1 1 1 2 2 2 2 1 1 1 1 1 0 0 0
0 0 0 0 0 0 0 0 0 0 0 0 0 0 0 0 0 0 0 0 0 0 0 0 1 1 1 1 1 1 1 1 1 1 2 1 1 1 1 1 1 1 0 0
0 0 0 0 0 0 0 0 0 0 0 0 0 0 0 0 0 0 0 0 0 0 0 0 1 1 1 1 1 1 1 1 1 1 1 1 1 1 1 1 1 1 1 1
0 0 0 0 0 0 0 0 0 0 0 0 0 0 0 0 0 0 0 0 0 0 0 0 1 1 1 1 1 1 1 1 1 1 1 1 1 1 1 1 1 1 1 1
0 0 0 0 0 0 0 0 0 0 0 0 0 0 0 0 0 0 0 0 0 0 0 0 1 1 1 1 1 1 1 1 1 0 1 1 1 1 1 1 1 1 1 0
0 0 0 0 0 0 0 0 0 0 0 0 0 0 0 0 0 0 0 0 0 0 0 0 0 1 1 1 1 1 1 1 1 1 0 0 0 1 1 1 1 1 0 0
0 0 0 0 0 0 0 0 0 0 0 0 0 0 0 0 0 0 0 0 0 0 0 0 0 0 1 1 1 1 1 1 1 1 1 0 0 0 0 0 0 0 0 0
0 0 0 0 0 0 0 0 0 0 0 0 0 0 0 0 0 0 0 0 0 0 0 0 0 0 0 0 1 1 1 1 0 1 1 0 0 0 0 0 0 0 0 0
0 0 0 0 0 0 0 0 0 0 0 0 0 0 0 0 0 0 0 0 0 0 0 0 0 0 0 0 0 1 1 1 0 0 1 1 0 0 0 0 0 0 0 0
0 0 0 0 0 0 0 0 0 0 0 0 0 0 0 0 0 0 0 0 0 0 0 0 0 0 0 0 1 1 1 1 0 0 1 1 1 0 0 0 0 0 0 0
0 0 0 0 0 0 0 0 0 0 0 0 0 0 0 0 0 0 0 0 0 0 0 0 0 0 0 0 1 1 1 1 0 0 0 0 1 1 0 0 0 0 0 0
0 0 0 0 0 0 0 0 0 0 0 0 0 0 0 0 0 0 0 0 0 0 0 0 0 0 0 0 0 1 1 0 0 0 0 0 0 0 0 0 0 0 0 0
0 0 0 0 0 0 0 0 0 0 0 0 0 0 0 0 0 0 0 0 0 0 0 0 0 0 0 0 0 0 0 0 0 0 0 0 0 0 0 0 0 0 0 0
0 0 0 0 0 0 0 0 0 0 0 0 0 0 0 0 0 0 0 0 0 0 0 0 0 0 0 0 0 0 0 0 0 0 0 0 0 0 0 0 0 0 0 0
Wind_Speed
8 6 7 8 8 9 11 10 10 7 6 3 2 3 2 1 1 2 3 4 4 4 5 5 5 5 5 5 5 5 6 6 6 6 6 6 5 5 5 5 5 5 5 5
9 8 8 10 9 9 9 10 11 9 6 2 2 2 1 1 0 1 2 3 3 4 4 5 5 5 5 5 5 5 6 5 5 5 6 6 6 5 5 5 5 5 5 5
9 7 9 10 7 8 8 7 8 8 4 2 2 2 1 1 1 1 0 1 2 3 4 4 5 5 5 5 5 5 5 5 5 5 5 5 6 6 6 5 5 5 5 5
7 6 12 2 1 4 5 5 5 5 3 2 3 3 1 1 1 1 1 1 0 1 2 3 4 5 5 5 5 5 5 5 5 5 5 5 5 5 5 5 5 5 5 6
7 10 9 4 2 2 4 5 3 3 3 3 3 3 2 2 2 2 1 1 0 1 1 2 3 4 5 5 5 5 5 5 5 5 5 5 5 5 4 4 4 4 4 5
8 10 9 2 3 1 5 6 1 3 3 3 4 5 1 3 2 2 2 1 1 0 1 1 2 3 4 4 4 4 4 4 4 4 4 4 4 5 4 4 4 4 4 5
11 11 6 2 1 3 7 2 4 3 3 3 3 5 4 3 3 2 2 1 1 0 1 1 1 2 3 3 4 3 3 3 4 4 4 4 3 3 3 4 4 4 4 4
9 11 6 4 1 2 4 4 3 3 3 3 3 2 3 3 3 3 2 1 1 1 1 1 1 2 2 2 2 2 3 3 4 4 3 3 3 3 4 4 5 5 4 5
4 2 4 3 2 3 3 3 3 3 3 3 2 2 3 3 3 4 3 2 1 1 1 1 1 1 2 1 2 3 3 3 3 4 4 3 4 4 4 4 4 4 4 4
4 2 0 1 2 3 3 4 4 4 3 3 3 2 3 3 3 4 4 2 1 1 0 0 0 1 1 1 2 3 3 4 4 4 4 4 4 4 3 3 4 4 4 4
5 2 2 2 3 4 4 4 4 4 3 4 4 3 3 2 2 3 3 3 2 2 2 1 1 1 1 1 2 3 3 3 4 4 3 3 3 2 3 2 2 4 4 4
4 2 4 3 4 5 5 5 4 4 4 4 4 3 3 2 1 2 3 3 3 3 3 2 1 1 1 1 2 3 3 4 3 3 3 4 3 3 2 3 2 3 3 5
4 5 5 5 5 5 5 5 5 4 4 4 3 3 3 3 2 3 3 3 3 3 3 3 2 2 1 1 2 3 3 3 3 3 3 4 3 3 3 3 5 5 6 6
3 4 5 5 5 5 5 5 5 4 3 2 2 3 3 3 3 4 4 4 4 3 3 3 2 2 1 1 1 2 3 2 3 3 3 3 3 3 3 3 3 3 5 7
4 5 5 5 5 5 4 4 4 4 3 3 3 3 3 3 3 4 4 4 4 4 4 3 2 2 2 2 2 2 3 2 2 2 3 3 3 3 3 3 3 3 3 2
4 4 5 4 5 4 4 4 4 4 4 4 3 3 4 4 4 4 4 4 4 4 4 4 3 2 2 2 2 3 2 2 3 4 3 3 3 3 3 3 3 3 3 2
5 5 5 5 5 5 5 4 4 4 4 4 4 3 4 4 4 4 4 4 4 4 4 4 3 2 2 3 3 3 2 2 4 4 3 3 3 3 3 3 3 3 2 1
5 5 6 6 6 5 5 4 4 4 4 4 3 3 4 5 5 5 5 4 4 4 4 4 3 3 2 2 3 3 3 3 2 2 2 2 3 3 3 3 3 3 2 1
4 4 5 5 5 5 4 4 4 4 4 3 3 3 4 5 5 5 4 4 5 4 4 3 3 3 3 2 3 3 3 3 2 2 3 2 3 3 3 3 3 2 2 2
2 3 3 4 4 4 4 4 4 3 3 4 4 4 4 4 4 5 5 5 4 4 4 4 3 2 2 2 4 3 3 3 3 3 3 3 3 3 2 3 2 2 2 2
2 3 3 2 2 3 3 3 3 3 4 4 4 4 5 4 4 4 5 4 3 4 4 2 3 2 3 3 3 4 3 3 3 3 3 3 2 2 2 2 2 2 3 3
3 3 3 3 2 2 2 3 3 3 4 4 4 4 4 4 3 3 3 3 4 3 3 3 2 2 3 4 3 3 3 3 3 2 2 2 2 2 2 2 2 3 3 3
3 3 3 2 2 3 3 3 3 2 3 4 4 4 4 3 3 3 3 3 3 3 3 3 3 3 3 3 3 3 3 3 3 2 2 2 2 2 2 2 2 2 2 2
2 3 2 2 2 2 2 3 3 3 3 3 3 3 3 3 2 2 3 1 2 3 3 2 2 3 4 3 2 2 2 3 3 3 2 2 2 1 2 2 2 2 2 2
2 1 1 1 1 1 2 2 2 2 3 2 3 3 3 2 3 3 3 3 2 3 3 1 2 4 4 3 2 2 1 2 3 3 2 2 2 1 1 1 2 2 2 2
1 1 1 1 2 3 2 2 2 2 2 2 2 2 2 2 2 2 2 2 2 2 3 2 2 2 2 2 2 2 2 1 2 2 2 2 2 1 1 1 2 2 2 2
1 1 1 1 1 2 2 2 2 2 2 3 3 2 3 2 2 3 3 3 2 2 3 3 3 3 2 2 2 2 2 1 1 1 1 1 1 2 1 2 2 2 2 2
Wind_Direction
256 266 258 253 242 234 245 258 265 268 264 266 307 329 350 8 126 172 177 176 173 177 166 176 181 187 192 194 195 199 202 207 205 205 207 209 207 208 209 212 214 215 224 227
239 237 245 249 248 247 247 256 260 264 268 321 331 332 354 7 67 170 179 182 179 178 178 184 190 195 196 199 196 198 204 208 203 204 206 208 207 206 209 213 216 215 220 225
241 230 239 235 245 247 245 254 261 264 279 316 294 298 313 332 346 16 174 185 181 187 192 194 197 198 200 198 193 195 200 201 199 204 208 211 212 208 212 216 216 221 224 227
251 234 242 255 359 284 265 266 278 284 296 299 304 296 295 342 337 347 3 347 219 194 195 197 198 198 200 193 189 190 194 195 196 202 206 208 215 217 218 219 221 226 229 232
247 241 241 204 176 278 269 266 311 292 290 307 306 247 179 35 356 354 7 30 350 248 193 180 189 190 189 192 190 194 196 199 200 205 208 211 216 219 220 223 226 228 228 228
243 253 248 200 98 328 267 236 1 318 303 303 286 256 103 27 350 349 7 26 40 73 140 152 186 179 186 188 192 203 203 203 202 207 211 214 219 222 217 217 225 230 227 229
242 248 248 34 350 240 245 322 7 326 310 296 293 318 349 343 342 331 345 7 29 97 150 138 174 185 194 198 206 210 206 199 196 204 213 210 207 209 211 216 222 231 236 237
240 245 239 43 291 278 353 360 336 328 322 315 331 357 350 356 357 337 336 356 11 80 96 115 163 202 212 218 216 202 200 203 198 202 216 197 195 202 208 218 219 222 230 241
279 305 40 28 15 5 339 330 333 329 321 311 313 335 349 351 358 346 331 335 357 48 102 133 145 227 238 237 212 194 193 202 202 202 211 209 202 207 211 216 233 236 237 244
248 213 0 353 1 353 342 328 318 316 313 306 311 333 339 341 356 340 326 328 345 350 350 57 29 269 253 224 215 208 202 203 205 206 208 203 216 216 222 230 242 248 253 260
243 243 253 257 322 333 330 320 312 313 312 305 305 311 321 329 352 323 318 330 342 335 334 341 341 284 267 222 211 210 208 211 215 214 211 214 218 234 235 239 264 269 273 269
271 287 284 309 322 318 309 304 302 297 299 304 300 302 304 318 332 311 312 324 331 332 330 326 303 290 287 242 202 205 211 215 222 227 218 230 222 217 177 222 201 228 263 283
297 304 306 302 304 308 304 301 298 291 287 294 301 302 303 314 315 313 312 313 313 311 311 309 296 278 270 263 219 217 225 226 240 238 229 233 231 236 234 212 209 223 232 238
284 285 282 285 296 301 301 300 297 293 287 285 295 300 305 313 314 311 312 311 305 300 292 288 285 291 290 259 232 234 237 222 241 243 245 250 251 249 248 255 253 243 217 208
272 279 285 293 290 293 294 289 285 289 297 300 298 299 300 301 303 308 308 307 305 297 291 290 288 301 300 271 250 254 256 251 259 272 262 258 256 256 255 259 266 270 276 201
275 277 278 277 283 286 286 285 286 294 298 297 300 302 300 301 302 298 299 301 294 291 296 293 288 293 284 276 261 255 251 253 264 270 269 263 255 257 265 263 263 265 270 283
263 269 276 277 278 279 279 280 284 286 287 287 294 300 298 299 298 295 291 286 289 294 290 284 280 279 272 262 263 268 270 240 231 257 264 270 273 270 268 267 266 266 273 289
265 273 278 278 278 275 277 282 287 289 294 296 290 290 292 295 296 299 301 302 297 290 292 295 297 288 276 281 282 285 274 269 258 263 270 274 281 275 270 265 264 269 274 225
275 280 282 283 283 279 282 290 295 296 293 291 289 288 290 294 298 301 304 300 292 288 298 306 300 279 285 302 297 270 269 269 266 265 265 248 250 260 263 264 267 271 274 279
296 297 293 287 282 280 283 289 293 296 299 296 296 294 291 293 297 298 295 289 296 310 315 311 285 283 288 294 291 279 275 275 277 275 267 263 262 266 269 273 275 276 278 278
339 337 333 319 304 296 299 296 296 301 304 298 292 291 292 295 293 290 288 293 316 327 315 299 281 293 296 305 273 276 277 276 277 276 272 271 274 279 283 284 288 290 284 285
350 344 349 354 348 340 332 310 306 306 304 304 304 307 303 298 299 298 301 307 317 341 307 295 299 347 328 299 277 282 283 279 280 279 280 283 277 272 270 275 281 287 289 293
342 341 350 2 3 9 1 342 331 320 313 312 311 310 306 303 304 305 312 323 320 335 310 318 345 346 309 279 291 292 289 281 275 273 270 269 272 277 280 279 282 290 295 302
333 335 346 357 353 351 342 325 317 314 313 309 314 314 299 290 292 307 320 349 339 322 317 351 335 299 273 269 277 280 290 292 289 288 286 276 277 288 295 297 294 292 305 319
290 311 332 320 302 304 300 291 290 301 307 328 341 341 319 320 326 335 334 344 358 311 311 330 249 267 270 285 285 286 281 293 302 307 309 312 309 300 311 312 308 311 319 320
269 277 355 324 318 307 302 305 311 323 327 341 349 352 349 349 341 330 317 319 328 320 315 318 308 268 280 285 283 284 283 266 258 270 304 318 319 316 313 301 301 319 326 322
237 231 221 248 266 302 319 326 329 339 349 346 342 351 348 342 341 345 339 332 323 321 322 319 319 314 309 307 300 292 289 295 298 300 303 313 324 325 328 311 323 335 322 319